Skip Page Navigation
NASA JPL Caltech
NASA Logo - Jet Propulsion Laboratory + View the NASA Portal
+ Center for Near-Earth Object Studies
JPL Home Earth Solar System Stars & Galaxies Technology
JPL Solar System Dynamics
BODIES ORBITS EPHEMERIDES TOOLS PHYSICAL DATA DISCOVERY FAQ SITE MAP
IMPORTANT: The SSD Announcement email list is now available. Major changes are coming in the near future, including possible hostname and/or URL changes. To be notified of such changes, subscribe to this email list.

Please visit this page for more details.


JPL Small-Body Database Browser
Search: [ help ]  
277683 (2006 BX267)
Classification: Main-belt Asteroid          SPK-ID: 2277683
Ephemeris | Orbit Diagram | Orbital Elements | Mission Design | Physical Parameters | Discovery Circumstances ]

[ show orbit diagram ]
Orbital Elements at Epoch 2458600.5 (2019-Apr-27.0) TDB
Reference: JPL 13 (heliocentric ecliptic J2000)
 Element Value Uncertainty (1-sigma)   Units 
e .08371847816454897 7.7494e-08  
a 2.750229168598267 5.0963e-08 au
q 2.519984167999468 2.3575e-07 au
i 10.18696532626956 9.0613e-06 deg
node 109.8709471251981 3.4602e-05 deg
peri 69.41340571252965 6.5196e-05 deg
M 296.7620143035091 5.8965e-05 deg
tp 2458893.135681957011
(2020-Feb-13.63568196)
0.00027809 TDB
period 1665.910834196129
4.56
4.6305e-05
1.268e-07
d
yr
n .2160980003312812 6.0066e-09 deg/d
Q 2.980474169197067 5.523e-08 au
  Orbit Determination Parameters
   # obs. used (total)      316  
   data-arc span      6149 days (16.84 yr)  
   first obs. used      2002-05-06  
   last obs. used      2019-03-07  
   planetary ephem.      DE431  
   SB-pert. ephem.      SB431-N16  
   condition code      0  
   norm. resid. RMS      .56422  
   source      ORB  
   producer      Otto Matic  
   solution date      2019-Jul-14 06:58:38  

Additional Information
 Earth MOID = 1.54698 au 
 Jupiter MOID = 2.05787 au 
 T_jup = 3.318 
[ show covariance matrix ]

Ephemeris | Orbit Diagram | Orbital Elements | Mission Design | Physical Parameters | Discovery Circumstances ]

Physical Parameter Table
Parameter Symbol Value Units Sigma Reference Notes
absolute magnitude H 15.9   n/a MPO427525  

277683 (2006 BX267)          Discovered 2006-Jan-26 by CSS at Catalina
Reference: 20110517/Numbers.arcLast Updated: 2011-05-20
Ephemeris | Orbit Diagram | Orbital Elements | Mission Design | Physical Parameters | Discovery Circumstances ]
ABOUT SSD CREDITS/AWARDS PRIVACY/COPYRIGHT GLOSSARY LINKS
FirstGov 2019-Dec-13 05:34 UT
(server date/time)  
NASA Home Page
Site Manager:   Ryan S. Park
Webmaster  Alan B. Chamberlin